Simultaneous Nadir Overpasses (SNOs) Predictions

Prediction of SNOs between LANDSAT-8 and NOAA-19 Satellite Orbit:

Table of predicted SNOs for the next 14.0 days since TLE Epoch: 3/26/2016
Index Date (LANDSAT-8) Time (LANDSAT-8) Lat,Lon (LANDSAT-8) SZA (LANDSAT-8 ) Date (NOAA-19) Time (NOAA-19) Lat,Lon (NOAA-19) SZA (NOAA-19 ) Distance(km) Time Diff (sec)
1 03/27/2016 16:31:30 74.43, -63.94 71.41 03/27/2016 16:30:19 74.42, -63.84 71.40 3.04 71
2 03/27/2016 17:20:59 -74.35, 103.51 108.69 03/27/2016 17:21:17 -74.37, 103.56 108.67 2.84 18
3 03/29/2016 22:05:13 -74.44, 32.66 109.45 03/29/2016 22:04:25 -74.45, 32.62 109.45 1.43 48
4 03/29/2016 22:54:40 74.37,-159.88 70.46 03/29/2016 22:55:26 74.38,-159.95 70.48 2.79 46
5 04/01/2016 03:38:54 74.45, 129.25 69.70 04/01/2016 03:38:33 74.44, 129.15 69.69 3.16 21
6 04/01/2016 04:28:24 -74.33, -63.41 110.45 04/01/2016 04:29:31 -74.33, -63.30 110.43 3.42 67
7 04/03/2016 08:22:58 75.03, 59.65 69.47 04/03/2016 08:21:52 75.08, 56.58 69.47 88.15 66
8 04/03/2016 09:12:38 -74.40,-134.29 111.21 04/03/2016 09:12:39 -74.41,-134.26 111.19 1.66 1
9 04/05/2016 13:56:52 -74.47, 154.81 111.96 04/05/2016 13:55:47 -74.50, 154.77 111.94 3.38 65
10 04/05/2016 14:46:19 74.39, -37.75 67.94 04/05/2016 14:46:45 74.38, -37.65 67.94 3.16 26
11 04/07/2016 19:30:33 74.45,-108.68 67.18 04/07/2016 19:29:52 74.46,-108.58 67.19 3.00 41




NCC Satellite Simultaneous Nadir Overpasses (SNOs) Prediction Service
